Change the Weather History Date:

Thursday, December 19, 2013

  Actual Average Record
Temperature  
Mean Temperature 29 °F 23 °F  
Max Temperature 37 °F 32 °F 49 °F (1967)
Min Temperature 20 °F 15 °F -20 °F (1985)
Degree Days  
Heating Degree Days 36 42  
Month to date heating degree days 808 726  
Since 1 July heating degree days 2513 2360  
Cooling Degree Days 0 0  
Month to date cooling degree days 0  
Year to date cooling degree days 346  
Moisture  
Dew Point 24 °F    
Average Humidity 82    
Maximum Humidity 100    
Minimum Humidity 64    
Precipitation  
Precipitation T in - 0.17 in (1970)
Month to date precipitation 0.40  
Year to date precipitation 30.98  
Sea Level Pressure  
Sea Level Pressure 29.97 in    
Wind  
Wind Speed 1 mph (South)    
Max Wind Speed 9 mph    
Max Gust Speed 12 mph    
Visibility 10 miles    
Events Snow    
T = Trace of Precipitation, MM = Missing Value Source: NWS Daily Summary

Daily Weather History Graph

Daily Weather History Graph

Search for Another Location

Airport or City:

Trip Planner

Search our weather history database for the weather conditions in past years. The results will help you decide how hot, cold, wet, or windy it might be!

Date:

Astronomy

Dec. 19, 2013 Rise Set
Actual Time 7:26 AM EST 4:15 PM EST
Civil Twilight 6:53 AM EST 4:49 PM EST
Nautical Twilight 6:16 AM EST 5:26 PM EST
Astronomical Twilight 5:40 AM EST 6:01 PM EST
Moon 6:43 PM EST (12/19) 8:39 AM EST (12/19)
Length of Visible Light 9h 55m
Length of Day
8h 48m
Waning Gibbous, 95% of the Moon is Illuminated
Dec 19
Waning Gibbous
Dec 25
Last Quarter
Jan 1
New
Jan 7
First Quarter
Jan 15
Full

Hourly Weather History & Observations

Time (EST) Temp. Windchill Dew Point Humidity Pressure Visibility Wind Dir Wind Speed Gust Speed Precip Events Conditions
12:53 AM 27.0 °F 23.0 °F 19.0 °F 72% 29.99 in 10.0 mi Variable 3.5 mph - N/A   Overcast
1:53 AM 27.0 °F - 19.9 °F 75% 29.99 in 10.0 mi Calm Calm - N/A   Overcast
2:53 AM 27.0 °F 23.0 °F 21.9 °F 81% 30.01 in 4.0 mi SSW 3.5 mph - 0.00 in Snow Light Snow
3:53 AM 23.0 °F - 21.0 °F 92% 29.99 in 10.0 mi Calm Calm - 0.00 in   Partly Cloudy
4:53 AM 21.9 °F - 21.0 °F 96% 29.98 in 10.0 mi Calm Calm - N/A   Overcast
5:53 AM 24.1 °F - 21.9 °F 91% 29.94 in 10.0 mi Calm Calm - N/A   Overcast
6:53 AM 24.1 °F - 21.9 °F 91% 29.94 in 10.0 mi Calm Calm - 0.00 in   Overcast
7:53 AM 24.1 °F - 21.9 °F 91% 29.92 in 10.0 mi Calm Calm - N/A   Overcast
8:53 AM 25.0 °F - 21.9 °F 88% 29.92 in 10.0 mi Calm Calm - N/A   Overcast
9:53 AM 26.1 °F - 23.0 °F 88% 29.92 in 10.0 mi Calm Calm - N/A   Overcast
10:53 AM 28.9 °F - 23.0 °F 78% 29.92 in 10.0 mi Calm Calm - N/A   Overcast
11:53 AM 28.9 °F - 24.1 °F 82% 29.91 in 10.0 mi Calm Calm - N/A   Overcast
12:53 PM 30.9 °F 25.2 °F 23.0 °F 72% 29.89 in 10.0 mi SSE 5.8 mph - N/A   Overcast
1:53 PM 32.0 °F 24.8 °F 24.1 °F 73% 29.89 in 10.0 mi SSE 8.1 mph - N/A   Overcast
2:53 PM 32.0 °F 28.7 °F 25.0 °F 75% 29.92 in 10.0 mi SSE 3.5 mph - N/A   Overcast
3:53 PM 33.1 °F - 26.1 °F 75% 29.95 in 10.0 mi Calm Calm - N/A   Overcast
4:53 PM 35.1 °F - 27.0 °F 72% 29.97 in 10.0 mi Calm Calm - N/A   Overcast
5:53 PM 36.0 °F - 27.0 °F 70% 29.99 in 10.0 mi Calm Calm - N/A   Overcast
6:53 PM 36.0 °F 33.3 °F 25.0 °F 64% 30.02 in 10.0 mi Variable 3.5 mph - N/A   Overcast
7:53 PM 34.0 °F - 26.1 °F 73% 30.03 in 10.0 mi Calm Calm - N/A   Overcast
8:53 PM 34.0 °F 31.0 °F 26.1 °F 73% 30.05 in 10.0 mi SSW 3.5 mph - N/A   Overcast
9:53 PM 33.1 °F - 27.0 °F 78% 30.06 in 10.0 mi Calm Calm - N/A   Overcast
10:53 PM 32.0 °F - 27.0 °F 82% 30.07 in 10.0 mi Calm Calm - N/A   Overcast
11:53 PM 30.9 °F - 27.0 °F 85% 30.07 in 10.0 mi Calm Calm - N/A   Overcast